Regional Weather Roundup
Issued by NWS Memphis, TN

Home | Current Version | Previous Version | Text Only | Print | Product List | Glossary On
Versions: 1 2 3 4 5 6 7 8 9 10 11 12 13 14 15 16 17 18 19 20 21 22 23 24 25 26 27 28 29 30 31 32 33 34 35 36 37 38 39 40 41 42 43 44 45 46 47 48 49 50
000
ASUS44 KMEG 041610
RWRMEG
MEMPHIS CWA HOURLY WEATHER ROUNDUP
NATIONAL WEATHER SERVICE MEMPHIS TN
1100 AM CDT SAT JUL 04 2015

...WEST TENNESSEE...

CITY           SKY/WX    TMP DP  RH WIND       PRES   REMARKS
MEMPHIS INTL   CLOUDY    75  72  88 SW3       30.00F
NWS MEMPHIS      N/A     75 N/A N/A MISG        N/A
JACKSON        CLOUDY    76  70  82 VRB3      30.00F
LEXINGTON      CLOUDY    73  70  88 SW5       30.01S
DYERSBURG        N/A    N/A N/A N/A MISG        N/A
PARIS          PTSUNNY   75  68  78 CALM      30.01S


...EASTERN ARKANSAS...

CITY           SKY/WX    TMP DP  RH WIND       PRES   REMARKS
JONESBORO      CLOUDY    74  72  93 E3        29.98F
WEST MEMPHIS   CLOUDY    74  72  93 S3        29.98S
BATESVILLE     CLOUDY    72  70  94 CALM      30.00S
NEWPORT        CLOUDY    75  71  87 CALM      30.00S
WALNUT RIDGE   CLOUDY    75  70  83 E6        29.99S
BLYTHEVILLE    CLOUDY    77  72  84 SW3       30.00S
SEARCY         CLOUDY    74  70  87 W3        30.00S
STUTTGART      CLOUDY    73  70  88 W9        29.97S
PINE BLUFF     CLOUDY    72  69  90 SW8       30.02R
MONTICELLO     LGT RAIN  70  69  97 S7        30.02R


...NORTH MISSISSIPPI...

CITY           SKY/WX    TMP DP  RH WIND       PRES   REMARKS
TUPELO         CLOUDY    75  71  87 W6        30.01F
OLIVE BRANCH   LGT RAIN  72  72 100 S9        30.01F
TUNICA         CLOUDY    73  70  88 S7        30.02R
CLARKSDALE     CLOUDY    72  72 100 S6        30.02F
CORINTH        CLOUDY    75  68  78 SW9G15    30.01F
GREENWOOD      LGT RAIN  72  70  93 SW3       30.04R FOG
COLUMBUS       CLOUDY    76  71  84 S5        30.04F
STARKVILLE     FAIR      77  70  78 CALM      30.04F


...SOUTHEAST MISSOURI...

CITY           SKY/WX    TMP DP  RH WIND       PRES   REMARKS
WEST PLAINS    PTSUNNY   76  67  73 E5        30.04S
POPLAR BLUFF   CLOUDY    77  70  79 NE6       30.00R HAZE
CAPE GIRARDEAU MOSUNNY   77  69  76 E6        30.00F


...NORTHWEST ALABAMA...

CITY           SKY/WX    TMP DP  RH WIND       PRES   REMARKS
MUSCLE SHOALS  CLOUDY    77  68  73 W15       30.04F


...MIDDLE TENNESSEE...

CITY           SKY/WX    TMP DP  RH WIND       PRES   REMARKS
NASHVILLE      CLOUDY    78  72  81 S12       30.02R
CLARKSVILLE    LGT RAIN  78  71  79 N3        30.00S
COLUMBIA       CLOUDY    75  72  88 W6        30.01S


...WESTERN KENTUCKY...

CITY           SKY/WX    TMP DP  RH WIND       PRES   REMARKS
PADUCAH        PTSUNNY   77  68  73 E3        30.01R
FORT CAMPBELL  CLOUDY    77  70  78 N5        30.00S


...CENTRAL ARKANSAS...

CITY           SKY/WX    TMP DP  RH WIND       PRES   REMARKS
LITTLE ROCK    CLOUDY    75  69  81 SW5       30.00R


SKY/WX REPORTED AS FAIR MEANS FEW OR NO CLOUDS BELOW
12 THOUSAND FEET.



USA.gov is the U.S. government's official web portal to all federal, state and local government web resources and services.